Regional Weather Roundup
Issued by NWS

Home | Current Version | Previous Version | Graphics & Text | Print | Product List | Glossary On
Versions: 1 2 3 4 5 6 7 8 9 10 11 12 13 14 15 16 17 18 19 20 21 22 23 24 25 26 27 28
000
ASUS45 KGTF 041310
RWRMT
MONTANA HOURLY WEATHER ROUNDUP
NATIONAL WEATHER SERVICE GREAT FALLS MT
700 AM MDT MON MAY 04 2015

NOTE: "FAIR" INDICATES FEW OR NO CLOUDS BELOW 12000 FEET WITH NO
SIGNIFICANT WEATHER AND/OR OBSTRUCTIONS TO VISIBILITY.

MTZ001>007-043-041400-
WEST OF THE DIVIDE

CITY           SKY/WX    TMP DP  RH WIND       PRES   REMARKS
KALISPELL      SUNNY     31  27  85 N6        29.93R WCI  25
MISSOULA       CLEAR     33  24  69 CALM      29.97R
BUTTE          CLEAR     35  28  75 S3        30.00R
DEER LODGE       N/A     34  25  69 CALM      30.01R
EUREKA           N/A     28  23  80 CALM      29.98R
HAMILTON         N/A     37  25  60 SE3       29.95R
LIBBY            N/A     28  27  93 CALM      29.97R
$$

MTZ008-052>055-041400-
SOUTHWEST MONTANA

CITY           SKY/WX    TMP DP  RH WIND       PRES   REMARKS
BOZEMAN        CLEAR     39  32  76 CALM      29.99R
DILLON         PTCLDY    41  29  62 S6        29.99R
$$

MTZ009-010-012-014-046-048-049-054-041400-
EAST SLOPES AND CENTRAL MONTANA

CITY           SKY/WX    TMP DP  RH WIND       PRES   REMARKS
CUT BANK       CLEAR     32  24  72 N5        29.95S
GREAT FALLS    CLEAR     37  28  70 CALM      29.95R
MALMSTROM AFB  CLEAR     40  32  75 SE1       29.96R
HELENA         CLEAR     39  28  64 E5        29.97R
$$

MTZ011-013-016-021-045-047-050-051-041400-
NORTH CENTRAL MONTANA

CITY           SKY/WX    TMP DP  RH WIND       PRES   REMARKS
HAVRE          CLEAR     40  29  64 E15       29.96S
LEWISTOWN      CLEAR     42  34  73 SE6       29.98S
CHINOOK          N/A     39  28  65 E13G21    29.99F WCI  32
FORT BENTON      N/A     45  28  53 E6        29.97S
$$

MTZ017>020-022>042-056>058-061-062-041400-
EASTERN PLAINS

CITY           SKY/WX    TMP DP  RH WIND       PRES   REMARKS
BAKER          PTSUNNY   43  30  60 SE13      30.15R
BILLINGS       PTCLDY    44  36  73 W3        30.00R
GLASGOW        SUNNY     43  24  47 E15       30.06S
JORDAN           N/A     37  29  72 E5        30.04S
LIVINGSTON     CLEAR     35  31  85 NW6       30.02R WCI  30
MILES CITY     CLOUDY    48  32  53 E8        30.07R
SIDNEY         SUNNY     43  28  56 CALM      30.15R
WOLF POINT     SUNNY     39  26  59 E7        30.12R
BIG TIMBER       N/A     39  34  81 SW5       30.03R
FORSYTH          N/A     46  36  66 E5        30.04R
PLENTYWOOD       N/A     41  25  52 CALM      30.15R
POPLAR           N/A     39  27  60 NE6       30.13S
$$

REGIONAL REPORTS...DAKOTAS

CITY           SKY/WX    TMP DP  RH WIND       PRES   REMARKS
WILLISTON      MOSUNNY   40  27  59 NE5       30.16R
MINOT          SUNNY     40  30  67 SE3       30.17R
DICKINSON      PTSUNNY   42  30  62 SE9       30.17R
BEACH          FAIR      41  32  70 SE9       30.17R
CROSBY         FAIR      37  36  93 CALM      30.18R
WATFORD CITY   FAIR      41  27  56 NE3       30.14R
BISMARCK       CLOUDY    39  30  70 NE3       30.21R
GRAND FORKS    MOSUNNY   44  36  73 N3        30.20R
FARGO          PTSUNNY   47  31  53 NE5       30.19R
BUFFALO SD       N/A     47  29  49 SE14      30.11R
RAPID CITY     RAIN      44  41  89 W5        30.21R FOG
$$

REGIONAL REPORTS...WYOMING/IDAHO/WASHINGTON

CITY           SKY/WX    TMP DP  RH WIND       PRES   REMARKS
GILLETTE       CLOUDY    47  38  71 SE21G29   30.08R
SHERIDAN       PTSUNNY   50  42  74 SE17      30.01R
BUFFALO WY     CLOUDY    48  43  82 S12       30.06S
CODY           CLEAR     43  37  81 S5        30.03R
YELLOWSTONE LA   N/A     27  25  92 CALM      30.14R
IDAHO FALLS    PTCLDY    42  39  89 N5        29.98R
SALMON           N/A     37  30  75 SE3       29.97R
BOISE          PTCLDY    51  32  48 CALM      29.86R
SPOKANE        PTCLDY    43  30  60 N5        29.89R
$$

REGIONAL REPORTS...ALBERTA

CITY           SKY/WX    TMP DP  RH WIND       PRES   REMARKS
EDMONTON       CLOUDY    39  34  81 E9        29.99F
CALGARY        PTCLDY    36  27  69 CALM      29.95S
MEDICINE HAT   PTCLDY    43  28  56 NE8       29.97R
$$

REGIONAL REPORTS...SASKATCHEWAN

CITY           SKY/WX    TMP DP  RH WIND       PRES   REMARKS
SWIFT CURRENT  SUNNY     39  30  70 SE9       30.07F
REGINA         MOSUNNY   37  32  81 SE6       30.15R
SASKATOON      MOSUNNY   34  32  93 S5        30.14R
$$



USA.gov is the U.S. government's official web portal to all federal, state and local government web resources and services.